Wetbulb
55.89 55.91 55.76 55.32 55.37 55.14 55.05 55.30 55.51 55.82 55.73 55.76 55.91 56.41 56.55 56.48 56.44 56.47 56.59 56.60 56.32 56.12 56.27 56.50 57.81 56.82 53.83 47.96 48.25 58.30 70.39 70.86 64.72 62.20 55.64 53.06 49.86 49.88 51.13 56.31 59.58 60.21 62.04 64.54 65.12 63.54 63.82
55.74 55.74 55.50 55.35 55.11 55.18 55.38 55.38 55.55 55.48 55.80 55.96 56.32 56.30 56.13 56.17 56.27 56.52 56.58 56.18 55.95 55.89 56.10 56.43 58.73 57.06 49.99 43.44 56.20 58.09 63.09 64.89 60.39 58.65 54.38 52.43 50.87 52.05 53.39 54.36 57.65 61.60 62.23 62.79 64.63 62.29 62.79
55.37 55.42 55.46 55.36 55.37 55.37 55.32 55.36 55.53 55.48 55.56 55.78 56.00 55.92 55.70 55.78 56.11 56.27 55.90 55.30 55.55 56.47 57.45 56.21 59.35 56.12 50.43 47.22 55.74 56.71 56.77 61.04 60.29 58.11 53.06 53.77 53.40 53.51 54.35 53.89 58.01 58.16 57.08 61.08 62.21 62.63 62.35
55.14 55.32 55.36 55.45 55.41 55.52 55.51 55.46 55.52 55.91 55.80 55.70 55.77 55.85 55.77 55.46 55.54 55.48 54.95 54.59 55.32 58.16 56.91 56.59 60.52 55.63 47.10 57.00 57.13 55.77 55.66 56.44 59.89 58.46 53.88 54.85 53.72 51.89 50.52 53.14 52.29 54.54 54.96 53.75 61.15 61.89 63.85
54.99 55.25 55.39 55.65 55.83 55.93 55.84 55.82 55.70 55.54 55.43 55.25 55.26 55.24 55.22 55.10 54.54 54.21 53.81 54.00 56.03 58.23 57.99 59.27 55.04 52.76 47.14 60.30 56.11 56.89 56.99 57.46 55.49 54.13 53.80 56.05 52.17 49.73 50.10 46.47 44.00 49.17 46.73 51.55 57.19 62.38 62.70
55.07 55.14 55.26 55.24 55.24 55.84 55.60 55.41 55.47 55.41 55.25 55.05 54.85 54.62 54.60 54.32 53.98 53.17 53.01 54.18 55.65 57.82 58.34 58.71 58.02 49.21 50.97 52.23 52.97 54.12 57.31 58.07 54.67 53.12 52.11 50.63 47.19 44.02 45.88 42.29 39.61 43.81 47.20 50.10 52.22 59.21 61.50
54.93 55.03 55.13 54.97 54.99 55.66 55.43 55.23 55.35 55.37 55.17 54.91 54.54 54.23 54.21 53.78 53.26 52.40 50.44 45.62 42.96 39.85 46.82 40.26 42.20 49.66 48.50 49.37 51.41 52.74 56.23 56.70 55.38 51.32 45.47 47.95 43.57 41.79 44.67 46.43 47.12 49.61 49.78 50.26 54.10 58.76 59.29
54.82 55.01 55.04 54.91 55.34 55.51 55.27 55.10 54.94 55.04 54.72 54.52 54.21 53.96 53.65 53.30 52.40 52.24 48.02 42.77 41.64 43.58 37.24 45.03 45.39 44.78 46.73 47.58 44.38 47.96 53.70 51.61 49.95 47.58 48.34 45.45 43.22 47.13 50.09 48.57 47.48 48.25 47.41 49.82 54.41 57.26 56.98
54.78 54.92 55.00 55.17 55.31 55.18 55.10 54.90 54.77 54.65 54.43 54.21 54.02 53.49 53.01 52.30 51.92 47.86 45.04 46.06 48.28 42.21 34.80 41.68 44.54 43.87 44.41 45.00 43.89 44.89 48.43 51.05 48.91 45.68 47.83 45.43 48.31 51.81 50.46 49.00 47.19 47.06 46.30 47.59 50.83 54.59 55.98
54.96 55.57 55.45 55.35 55.24 55.04 54.79 54.61 54.65 54.32 53.94 53.59 53.63 53.06 52.38 51.55 45.42 45.08 45.85 48.42 50.08 43.91 30.90 39.11 43.16 46.12 45.85 46.13 42.83 50.66 49.84 50.05 50.15 46.47 46.17 47.50 51.47 50.86 49.70 48.40 48.81 43.73 50.52 50.51 51.55 50.32 45.77
55.64 55.61 55.31 55.14 55.10 55.04 54.77 54.59 54.53 54.12 53.64 53.42 53.24 52.41 51.27 50.96 43.60 44.29 48.16 48.15 49.86 41.86 25.69 44.48 41.75 47.49 44.71 41.60 43.99 47.27 51.04 49.21 46.61 47.08 45.83 45.28 48.81 49.06 48.27 49.35 51.49 47.59 51.34 50.45 51.33 48.63 45.62
55.60 55.47 55.31 55.31 55.30 55.14 54.63 54.34 54.18 53.85 53.44 53.23 52.61 51.44 51.29 47.40 44.85 47.46 49.12 49.36 42.11 32.70 27.48 39.36 41.41 40.34 39.67 41.06 42.08 45.75 46.00 48.37 50.47 47.56 48.01 47.65 52.34 51.55 51.28 53.40 53.53 53.42 50.90 50.23 48.60 46.07 42.82
55.32 55.41 55.31 55.08 54.93 54.75 54.54 54.40 54.13 53.77 53.25 52.42 51.04 50.02 50.02 50.33 43.19 47.42 48.15 41.04 30.86 26.43 39.67 36.07 35.24 37.59 36.88 37.89 39.46 41.49 40.94 39.65 37.52 36.94 40.98 46.22 47.15 51.76 54.18 50.40 52.59 51.41 45.27 40.49 37.14 38.72 38.90
55.01 55.30 55.26 54.83 54.73 54.79 54.48 54.48 54.11 53.58 53.00 51.82 49.98 49.43 49.68 50.82 48.37 48.71 42.87 35.27 24.79 36.11 33.78 38.12 37.40 36.04 34.75 38.46 38.27 39.10 38.34 35.99 43.11 40.78 36.30 39.57 38.52 47.43 52.30 50.62 49.28 48.57 46.33 38.46 33.87 34.89 39.35
54.99 55.28 55.10 54.87 54.67 54.65 54.38 54.30 54.03 53.38 52.62 51.37 49.79 45.66 46.29 49.53 51.36 46.93 38.21 27.84 28.80 34.62 38.11 36.71 35.37 31.85 32.52 36.29 36.64 37.38 36.49 37.77 41.40 41.75 34.22 32.74 40.38 50.46 52.06 53.25 52.58 47.69 45.11 46.74 38.00 36.20 37.13
54.72 55.02 55.02 54.87 54.58 54.38 54.28 54.18 53.87 53.58 52.74 51.22 45.24 42.22 44.90 50.76 49.38 42.12 34.57 31.88 33.85 40.92 39.80 37.78 30.53 32.87 28.59 31.91 33.59 35.25 35.28 40.42 38.89 43.38 42.80 37.97 32.48 46.33 50.99 52.18 52.96 49.53 49.21 40.61 36.94 34.79 30.76
54.76 54.59 54.79 54.59 54.40 54.24 54.40 54.38 53.83 53.24 52.26 51.26 40.56 38.73 46.51 51.89 46.06 38.40 28.95 30.83 37.93 41.54 41.66 36.85 33.47 31.43 31.30 29.96 32.34 32.15 34.96 38.39 42.16 41.84 42.56 38.76 34.96 40.35 46.25 44.79 47.83 44.91 45.98 43.79 43.34 37.26 36.67
54.47 54.53 54.52 54.46 54.16 54.11 54.36 54.22 53.48 52.37 51.25 47.36 39.33 34.61 46.66 49.31 36.92 34.99 31.96 36.88 40.93 40.06 41.73 39.02 38.64 36.94 32.99 32.87 31.17 32.26 34.49 37.44 43.10 43.06 37.17 40.25 37.47 33.67 40.45 47.66 48.49 52.44 43.73 43.47 40.73 35.63 36.16
54.38 54.44 54.51 54.06 54.06 54.16 54.48 53.89 53.08 51.97 51.57 46.72 38.09 37.45 45.88 43.45 29.56 30.90 34.95 38.13 40.60 39.39 39.70 38.34 36.63 37.09 35.30 31.05 29.12 34.87 36.54 41.76 43.39 41.47 38.75 40.12 37.63 31.25 36.51 39.52 44.27 42.89 48.68 43.89 41.21 39.47 36.89
54.10 54.19 53.97 53.90 54.24 54.30 54.32 53.70 52.67 52.09 51.86 44.17 38.54 33.07 37.24 38.11 35.66 31.39 32.92 34.93 36.03 42.19 39.95 39.77 37.65 36.14 34.24 30.83 33.05 32.21 34.86 40.31 41.95 40.85 44.04 43.47 37.85 33.97 30.63 35.79 40.96 41.17 45.59 45.72 44.37 40.00 39.57
53.24 53.18 53.31 53.70 53.86 54.00 53.98 53.42 52.89 52.12 51.63 44.24 37.86 33.40 35.70 31.13 33.28 34.72 35.03 35.21 35.62 34.99 39.80 40.46 36.53 35.93 33.28 28.64 30.04 31.34 35.05 37.45 39.55 41.77 40.52 38.96 32.80 33.71 35.98 39.11 41.73 42.55 46.56 46.91 43.38 43.69 41.84
53.54 53.34 53.29 53.25 53.41 53.86 54.20 53.62 53.29 52.46 51.47 42.24 36.16 35.73 35.93 33.86 36.60 35.14 35.71 35.21 35.76 37.02 37.34 35.60 35.11 36.81 36.40 30.03 31.78 29.68 33.34 34.87 34.80 37.57 36.74 37.98 31.36 32.76 31.95 41.83 44.19 43.95 49.04 48.80 46.70 46.58 44.96
53.40 53.44 53.20 53.37 53.66 53.78 53.76 53.69 53.06 52.31 50.82 40.72 41.45 41.68 40.62 38.21 36.14 35.30 34.10 35.68 36.12 38.47 39.97 40.64 38.44 36.73 34.55 35.70 37.86 37.56 38.95 39.29 38.64 36.77 34.99 34.64 31.42 29.34 30.40 42.47 45.54 41.86 43.93 48.00 47.34 46.98 46.17
53.66 53.54 53.32 53.31 53.22 52.94 52.67 53.01 53.40 52.80 52.00 48.52 43.90 45.23 38.31 34.05 36.47 36.41 37.25 38.32 38.85 38.49 36.93 39.70 39.95 36.92 40.30 43.47 41.74 38.44 38.17 38.54 38.94 38.60 39.00 34.42 31.98 30.21 31.11 38.17 34.88 43.40 47.18 47.52 47.84 48.12 48.74
53.60 53.60 53.11 52.89 52.87 52.46 53.09 53.07 53.40 53.56 53.03 49.34 48.68 44.72 39.34 33.93 36.89 37.66 38.36 39.10 39.30 39.53 38.47 38.85 40.81 42.46 43.47 38.08 30.72 29.47 31.20 34.07 36.84 38.86 37.60 38.72 35.86 28.03 32.00 36.38 42.19 43.33 44.35 43.88 41.91 43.71 47.80
53.39 53.56 52.98 52.88 52.37 53.05 53.21 53.28 53.73 53.87 53.44 50.88 47.11 48.77 42.19 36.71 36.05 39.90 38.73 39.06 36.87 37.18 37.64 38.08 42.32 42.58 40.89 33.74 30.80 27.84 27.86 33.16 33.08 36.45 39.82 38.57 38.80 32.55 32.88 34.86 34.52 39.76 45.79 49.01 49.65 38.41 47.68
53.02 53.02 52.71 52.26 52.43 52.78 53.10 53.78 54.02 53.98 53.73 51.36 47.85 48.73 43.57 37.61 39.64 40.64 38.77 38.21 40.74 39.43 37.08 38.81 38.81 37.56 39.18 35.21 31.48 31.25 31.65 36.50 31.88 32.59 32.28 32.88 34.86 33.69 34.74 36.78 39.44 42.14 45.79 50.27 38.72 40.80 47.57
52.84 52.68 51.97 52.44 52.73 52.75 53.29 53.48 53.81 53.99 53.97 52.15 49.55 49.54 45.27 40.02 40.87 43.38 43.79 41.46 41.28 40.98 36.73 39.63 36.17 35.93 33.44 31.33 32.34 31.71 32.25 34.14 33.46 35.77 34.44 34.00 33.32 31.72 33.34 34.79 33.05 44.32 44.65 38.73 41.42 45.90 46.80
52.35 52.01 52.37 52.55 51.99 52.69 53.23 53.54 53.93 54.20 53.91 53.24 48.47 51.37 49.91 43.80 43.17 45.61 46.20 47.01 46.15 44.97 42.09 42.33 38.74 37.03 36.23 33.08 33.33 34.11 32.19 34.48 33.13 30.13 37.65 31.74 35.26 34.02 34.23 35.61 43.57 44.93 45.53 47.49 46.12 44.37 44.15
MSLP
1025.21 1024.81 1024.39 1023.98 1023.53 1023.07 1022.56 1022.01 1021.37 1020.73 1020.05 1019.32 1018.63 1017.89 1017.14 1016.36 1015.56 1014.92 1014.33 1013.86 1013.36 1012.90 1012.57 1012.51 1012.26 1012.30 1012.43 1011.42 1007.13 1003.31 1003.30 1003.71 1005.27 1006.10 1006.60 1007.05 1007.61 1007.83 1007.80 1007.21 1007.00 1006.53 1005.47 1005.03 1005.00 1004.73 1004.32
1025.44 1025.04 1024.62 1024.18 1023.72 1023.19 1022.65 1022.07 1021.43 1020.79 1020.08 1019.33 1018.59 1017.78 1016.99 1016.16 1015.31 1014.53 1013.80 1013.20 1012.59 1012.20 1011.93 1011.93 1011.83 1012.05 1012.25 1009.93 1003.96 1003.31 1003.85 1004.35 1004.36 1005.46 1006.20 1006.60 1006.48 1006.78 1006.99 1006.51 1006.44 1004.82 1005.14 1004.38 1004.55 1004.78 1004.41
1025.68 1025.27 1024.81 1024.31 1023.80 1023.30 1022.74 1022.13 1021.49 1020.83 1020.12 1019.36 1018.57 1017.69 1016.70 1015.80 1014.91 1014.13 1013.18 1012.38 1011.85 1011.13 1010.75 1011.16 1011.34 1011.66 1011.28 1006.49 1003.53 1003.49 1004.11 1004.11 1004.05 1004.30 1005.30 1005.60 1005.74 1006.34 1006.04 1006.10 1005.12 1005.05 1005.06 1004.29 1004.37 1004.35 1004.34
1025.81 1025.36 1024.88 1024.41 1023.93 1023.38 1022.79 1022.15 1021.43 1020.70 1019.95 1019.16 1018.33 1017.55 1016.62 1015.58 1014.51 1013.77 1012.78 1011.56 1010.87 1010.41 1010.09 1010.46 1010.62 1011.16 1009.41 1004.89 1004.19 1004.05 1003.90 1003.92 1004.02 1004.06 1004.13 1004.81 1005.48 1006.15 1006.07 1005.51 1004.95 1004.93 1004.81 1004.24 1003.67 1004.02 1004.11
1026.05 1025.53 1025.02 1024.49 1023.95 1023.41 1022.83 1022.18 1021.48 1020.74 1019.96 1019.15 1018.35 1017.50 1016.71 1015.67 1014.54 1013.82 1012.52 1011.12 1010.44 1010.12 1010.17 1010.48 1010.71 1010.51 1007.18 1004.13 1004.14 1002.74 1003.25 1003.08 1003.79 1004.32 1004.59 1004.77 1005.81 1006.03 1005.99 1006.04 1005.76 1004.75 1004.40 1003.79 1002.95 1003.00 1003.44
1026.18 1025.67 1025.18 1024.62 1024.04 1023.44 1022.79 1022.07 1021.42 1020.73 1019.95 1019.11 1018.19 1017.28 1016.33 1015.34 1014.21 1013.40 1012.25 1010.49 1009.79 1010.09 1010.29 1010.29 1010.12 1010.34 1005.75 1003.81 1003.36 1002.68 1002.23 1002.70 1003.55 1004.19 1005.03 1005.06 1005.47 1005.55 1005.62 1005.78 1004.90 1004.66 1004.22 1003.39 1002.59 1002.17 1002.82
1026.34 1025.83 1025.32 1024.77 1024.19 1023.54 1022.86 1022.16 1021.49 1020.75 1019.93 1019.04 1018.05 1017.11 1016.17 1015.07 1013.86 1013.01 1012.04 1010.72 1010.49 1010.24 1009.75 1009.56 1008.47 1008.20 1005.95 1004.66 1003.84 1002.20 1002.43 1002.33 1003.05 1003.70 1004.24 1004.38 1004.99 1004.17 1003.53 1004.54 1004.52 1004.21 1003.69 1003.11 1001.88 1001.21 1002.39
1026.65 1026.10 1025.49 1024.89 1024.28 1023.65 1022.98 1022.25 1021.43 1020.66 1019.91 1019.02 1018.01 1016.89 1016.18 1014.99 1013.46 1012.87 1012.54 1012.32 1012.01 1011.86 1009.54 1007.02 1006.61 1006.32 1005.57 1005.20 1004.61 1002.18 1002.06 1002.03 1002.64 1002.82 1003.43 1004.07 1003.08 1002.86 1003.62 1003.87 1004.03 1003.74 1003.38 1002.51 1001.62 1000.96 1001.24
1026.76 1026.26 1025.67 1025.01 1024.37 1023.77 1023.05 1022.27 1021.42 1020.51 1019.61 1018.71 1017.63 1016.63 1015.87 1014.70 1013.22 1012.60 1012.61 1011.56 1010.77 1010.91 1010.63 1007.07 1005.57 1005.16 1004.55 1004.59 1004.47 1002.88 1002.98 1002.06 1001.72 1002.48 1002.58 1002.46 1001.68 1002.56 1002.71 1002.81 1002.95 1002.67 1002.59 1002.08 1001.71 1000.96 1000.73
1026.83 1026.33 1025.81 1025.17 1024.48 1023.84 1023.13 1022.27 1021.34 1020.28 1019.16 1018.18 1017.21 1016.14 1015.55 1014.61 1013.09 1013.64 1012.30 1010.62 1010.35 1010.63 1010.49 1007.33 1005.55 1004.69 1004.28 1004.10 1003.91 1003.24 1002.34 1002.65 1001.70 1001.33 1002.10 1001.66 1001.32 1001.39 1001.53 1001.49 1001.73 1001.69 1001.26 1001.71 1001.66 1001.92 1001.73
1026.74 1026.27 1025.71 1025.09 1024.44 1023.85 1023.09 1022.18 1021.17 1020.16 1019.07 1018.08 1017.16 1016.01 1015.29 1014.84 1014.79 1013.75 1011.39 1010.65 1010.17 1010.37 1009.64 1006.50 1006.34 1005.37 1005.22 1005.60 1005.11 1003.03 1003.10 1002.41 1001.52 1001.42 1001.28 999.96 1000.19 1000.37 1000.24 999.60 1000.28 1000.14 1001.07 1001.63 1001.64 1002.32 1002.43
1026.73 1026.25 1025.69 1025.11 1024.51 1023.85 1023.11 1022.20 1021.23 1020.20 1019.08 1017.83 1017.04 1015.66 1015.35 1014.66 1014.64 1012.17 1011.28 1010.64 1010.37 1011.10 1009.05 1007.39 1007.39 1006.70 1005.92 1006.09 1005.55 1004.64 1004.12 1003.52 1001.86 1001.82 1001.04 999.99 999.65 999.22 998.70 999.38 999.88 1000.36 1001.03 1001.52 1001.85 1002.45 1002.42
1026.81 1026.36 1025.78 1025.16 1024.62 1023.96 1023.22 1022.33 1021.36 1020.43 1019.24 1017.70 1016.44 1015.17 1014.51 1014.13 1013.02 1011.27 1011.75 1011.53 1011.80 1011.04 1009.17 1009.18 1008.75 1008.19 1007.82 1007.63 1007.05 1006.88 1006.40 1006.22 1006.48 1004.87 1001.66 1000.71 999.24 998.67 998.28 998.84 999.41 1000.05 1000.91 1002.14 1002.43 1002.52 1002.07
1026.90 1026.33 1025.74 1025.19 1024.63 1023.95 1023.24 1022.39 1021.51 1020.55 1019.21 1017.60 1016.10 1014.58 1013.85 1013.00 1011.80 1011.88 1012.56 1012.97 1012.77 1011.70 1010.94 1010.36 1009.85 1009.37 1009.27 1009.04 1008.82 1008.33 1007.81 1007.71 1007.93 1007.69 1005.94 1002.10 1000.00 998.08 997.27 997.58 998.22 999.18 1000.13 1001.36 1002.11 1002.63 1002.44
1026.78 1026.22 1025.65 1025.06 1024.55 1023.95 1023.22 1022.48 1021.64 1020.57 1019.23 1017.98 1016.14 1014.52 1013.72 1012.71 1011.94 1012.45 1013.85 1013.93 1013.11 1012.04 1011.14 1010.64 1010.19 1010.18 1010.46 1010.31 1010.22 1009.85 1009.95 1009.40 1009.43 1010.15 1010.22 1007.30 1000.53 997.88 997.21 996.83 997.29 998.05 998.57 1000.29 1001.60 1002.38 1002.27
1026.54 1026.09 1025.56 1024.99 1024.45 1023.85 1023.13 1022.42 1021.77 1020.71 1019.47 1018.12 1017.69 1015.84 1014.05 1012.29 1011.29 1012.35 1013.80 1013.96 1013.10 1011.82 1011.02 1011.05 1011.63 1011.64 1011.77 1011.50 1011.15 1010.90 1010.75 1010.48 1010.59 1011.20 1012.14 1010.46 1006.17 998.97 996.90 996.70 996.47 996.08 997.84 999.35 1000.17 1001.47 1001.74
1026.36 1025.89 1025.38 1024.88 1024.38 1023.78 1023.09 1022.46 1021.82 1021.02 1019.93 1018.46 1017.89 1016.45 1013.46 1011.87 1011.26 1012.94 1014.66 1014.36 1013.32 1012.04 1011.20 1011.59 1012.12 1012.39 1012.58 1012.63 1012.19 1011.74 1011.43 1011.36 1011.22 1011.55 1012.15 1011.77 1009.05 1001.52 998.53 996.49 995.43 996.37 996.57 997.67 999.13 1000.33 1000.63
1026.14 1025.67 1025.21 1024.77 1024.23 1023.66 1023.06 1022.48 1021.98 1021.14 1020.40 1019.24 1019.01 1017.42 1014.06 1012.78 1014.06 1015.32 1016.02 1015.52 1014.29 1013.21 1012.39 1012.10 1012.22 1012.63 1012.90 1012.74 1012.58 1012.45 1012.25 1012.31 1012.22 1012.55 1012.35 1012.41 1010.45 1006.49 1000.28 996.80 996.09 995.86 996.43 997.40 998.24 999.41 999.58
1025.92 1025.51 1025.00 1024.50 1024.02 1023.43 1022.88 1022.36 1022.12 1021.29 1020.99 1020.99 1020.39 1018.19 1014.98 1014.75 1017.11 1017.44 1016.76 1015.89 1014.74 1013.79 1013.18 1012.83 1012.94 1013.07 1013.18 1013.17 1013.36 1012.97 1012.53 1012.46 1012.19 1012.86 1013.48 1013.67 1011.81 1008.97 1002.02 998.61 996.92 996.40 996.02 995.98 996.90 997.59 998.06
1025.65 1025.20 1024.74 1024.25 1023.80 1023.23 1022.72 1022.31 1022.05 1021.46 1020.91 1020.93 1020.81 1019.68 1017.97 1017.72 1018.67 1019.00 1018.25 1016.43 1015.15 1014.35 1013.99 1013.71 1013.23 1013.12 1013.46 1013.52 1013.48 1013.31 1012.93 1012.90 1012.89 1013.66 1014.16 1014.29 1013.22 1010.85 1006.63 1002.06 1000.18 997.27 995.89 995.67 995.70 996.46 996.93
1025.23 1024.83 1024.46 1024.02 1023.46 1022.97 1022.53 1022.15 1021.74 1021.36 1020.80 1021.19 1021.04 1020.98 1020.48 1020.01 1019.56 1019.50 1018.85 1017.06 1015.88 1015.01 1014.32 1014.28 1013.70 1013.96 1014.20 1014.07 1013.52 1013.10 1012.62 1012.18 1012.69 1013.98 1014.53 1015.20 1013.38 1011.00 1007.27 1003.43 1000.83 998.50 995.89 994.68 995.05 995.05 995.53
1024.85 1024.38 1023.96 1023.52 1023.02 1022.64 1022.32 1021.93 1021.62 1021.18 1020.76 1021.10 1021.36 1021.21 1021.23 1020.75 1020.32 1019.72 1018.51 1017.46 1016.78 1015.74 1015.57 1014.65 1014.67 1014.44 1014.44 1014.23 1013.50 1012.89 1012.51 1012.40 1012.82 1013.86 1014.90 1015.09 1013.08 1010.71 1005.97 1001.15 999.20 997.64 995.42 994.53 994.40 994.42 994.80
1024.47 1024.03 1023.54 1023.09 1022.60 1022.22 1022.01 1021.64 1021.31 1021.05 1021.03 1021.24 1020.95 1021.00 1021.10 1020.71 1020.26 1020.01 1018.84 1018.19 1017.17 1016.51 1015.24 1014.77 1014.73 1014.43 1013.73 1013.12 1012.85 1011.74 1011.27 1011.38 1012.02 1013.05 1014.34 1014.11 1012.87 1010.83 1005.56 1000.97 998.75 997.60 997.14 995.23 994.23 994.80 995.19
1024.07 1023.64 1023.15 1022.64 1022.18 1021.79 1021.48 1021.19 1020.95 1020.83 1020.97 1021.15 1021.00 1021.04 1021.04 1020.49 1020.18 1019.61 1018.86 1018.11 1017.08 1016.77 1016.05 1014.83 1014.62 1014.37 1013.20 1012.31 1011.62 1010.93 1010.44 1010.20 1010.57 1011.12 1012.07 1012.05 1011.75 1010.08 1005.37 1001.85 999.60 999.25 998.49 997.23 996.87 997.73 997.45
1023.59 1023.18 1022.67 1022.14 1021.67 1021.35 1021.02 1020.71 1020.48 1020.40 1020.37 1020.62 1020.56 1020.69 1020.75 1020.47 1019.81 1019.07 1018.25 1017.62 1017.10 1016.59 1015.56 1014.79 1014.18 1013.64 1012.79 1012.36 1011.77 1011.00 1009.97 1009.34 1009.07 1009.36 1010.25 1010.53 1010.78 1009.10 1005.80 1002.59 999.61 999.14 999.84 1000.17 999.99 1000.68 1000.15
1023.06 1022.59 1022.15 1021.62 1021.20 1020.84 1020.45 1020.14 1019.97 1019.87 1019.72 1019.94 1019.91 1020.05 1020.40 1020.23 1019.21 1018.67 1017.98 1017.48 1016.91 1016.22 1015.57 1014.60 1013.55 1012.64 1012.70 1012.86 1011.99 1011.33 1010.35 1009.54 1009.24 1009.01 1009.21 1010.11 1009.66 1008.87 1006.14 1003.99 1002.78 1004.13 1001.91 998.91 999.31 1001.64 1001.89
1022.57 1022.13 1021.57 1021.20 1020.72 1020.31 1019.99 1019.69 1019.47 1019.29 1019.17 1019.43 1019.48 1019.47 1019.91 1019.91 1018.77 1018.45 1017.81 1017.37 1016.86 1016.26 1015.83 1015.35 1014.86 1013.62 1013.07 1013.35 1012.78 1011.78 1010.66 1009.89 1009.78 1009.51 1009.94 1010.53 1009.23 1007.76 1006.46 1005.23 1005.68 1006.08 1003.32 1000.89 1002.78 1005.96 1004.21
1022.13 1021.63 1021.10 1020.68 1020.29 1019.88 1019.58 1019.30 1019.05 1018.84 1018.73 1018.98 1018.87 1019.02 1019.40 1019.47 1018.66 1018.00 1017.49 1017.06 1016.30 1016.02 1015.63 1015.42 1015.11 1014.80 1014.43 1014.22 1013.86 1013.07 1012.40 1011.57 1010.99 1011.31 1010.57 1010.30 1010.27 1009.49 1007.92 1007.27 1008.46 1007.89 1006.08 1006.47 1008.35 1007.24 1005.93
1021.56 1021.09 1020.62 1020.21 1019.81 1019.47 1019.19 1018.89 1018.62 1018.44 1018.39 1018.48 1018.68 1018.72 1019.11 1019.43 1018.74 1017.70 1017.03 1016.52 1016.08 1015.59 1015.69 1015.20 1015.75 1015.69 1015.67 1015.49 1015.18 1014.69 1013.71 1012.37 1012.15 1012.31 1011.82 1011.25 1011.28 1010.84 1011.12 1010.12 1009.55 1009.06 1008.86 1008.46 1008.46 1007.61 1007.37
Wind_Speed
19 19 20 20 20 21 21 22 23 23 24 25 26 25 25 26 27 26 24 23 21 20 18 14 10 3 2 1 15 9 7 18 18 18 18 14 10 9 10 11 16 14 16 12 12 8 9
19 20 20 20 21 22 23 23 23 24 24 24 24 25 26 26 27 27 25 22 21 20 18 13 8 5 1 6 6 13 1 18 19 18 16 12 11 11 5 11 15 7 19 17 13 8 6
20 20 21 21 22 22 22 23 23 23 23 24 24 25 27 28 29 28 28 26 22 22 17 7 7 5 4 22 3 7 4 10 13 23 15 15 12 12 9 4 22 18 16 10 10 13 6
19 20 20 20 21 21 21 22 23 23 24 25 26 26 28 29 30 30 29 29 24 19 4 6 8 6 12 8 10 15 7 5 9 17 9 14 12 4 4 7 8 7 9 13 14 10 2
19 19 20 20 20 20 20 21 22 23 25 25 26 26 27 28 29 27 29 30 24 4 4 6 6 5 14 10 4 10 9 8 10 6 8 10 6 7 2 4 5 4 8 8 18 18 13
19 19 20 21 21 20 21 22 23 24 25 25 25 26 27 28 28 25 26 25 16 4 3 8 1 4 6 3 8 18 10 10 7 11 4 9 5 5 7 5 12 6 5 6 9 16 17
18 19 20 21 21 21 22 23 24 24 25 25 26 25 27 30 31 28 14 7 11 8 5 9 18 13 29 16 18 8 7 12 9 7 10 9 10 17 23 12 6 6 7 10 7 10 25
19 19 20 21 21 21 22 23 24 24 25 25 25 26 26 28 32 27 1 5 5 8 15 13 14 16 24 10 12 19 8 11 10 18 9 4 19 18 6 9 11 14 10 14 15 11 10
18 18 19 19 20 21 22 23 23 24 25 25 26 28 28 28 31 5 4 6 7 4 2 13 4 4 8 5 6 18 2 6 6 9 16 19 7 15 15 14 15 15 16 16 11 6 8
18 17 18 19 20 21 22 23 24 26 28 29 30 30 28 29 6 6 6 8 9 2 5 9 7 4 12 1 4 13 7 8 9 18 10 17 19 18 17 21 18 17 20 17 17 7 5
17 18 18 19 20 21 22 24 25 27 29 30 30 31 27 14 4 5 10 8 13 5 4 5 8 3 9 11 10 15 17 6 18 11 11 17 22 24 22 25 20 19 14 14 17 5 1
17 18 19 19 21 22 23 24 26 28 31 32 30 31 26 2 1 10 9 15 6 6 5 4 7 13 14 17 14 14 13 11 10 18 20 15 12 22 27 17 20 12 11 9 6 4 11
18 18 19 19 20 21 22 24 26 28 31 34 33 33 17 2 5 5 7 6 6 3 12 10 9 9 8 15 11 16 14 12 10 10 14 18 22 23 13 19 14 13 8 7 5 7 9
18 18 18 19 20 21 22 23 25 27 31 34 35 31 5 6 7 2 5 7 2 11 4 6 8 6 8 13 4 17 13 10 18 15 9 16 19 23 21 12 19 14 11 7 9 6 7
17 18 18 19 19 20 21 22 23 26 30 33 32 6 4 6 9 4 6 4 3 6 8 12 7 5 5 8 1 10 10 2 13 21 12 11 17 4 20 19 16 11 19 11 6 2 4
17 18 18 18 19 20 21 21 22 26 29 33 10 5 5 12 7 5 5 6 5 6 9 7 5 5 5 7 7 8 6 11 11 16 15 5 12 13 27 11 20 19 10 9 4 13 5
17 17 17 18 18 19 21 21 21 23 27 28 4 5 5 15 3 6 3 3 6 13 9 5 3 3 4 2 4 6 3 9 18 18 13 9 5 15 4 11 24 5 15 6 7 7 10
16 16 17 17 18 19 20 20 19 20 22 8 4 5 5 10 8 4 4 8 9 11 11 6 4 2 1 3 1 3 6 3 14 15 10 9 7 8 11 12 4 21 8 10 9 11 3
16 17 17 17 17 18 18 18 16 18 14 6 5 4 5 7 5 4 6 7 8 9 7 5 3 4 3 2 3 1 3 6 11 11 8 9 4 10 11 5 3 5 12 11 7 6 11
17 17 18 17 17 16 17 16 14 15 15 3 3 5 6 5 2 2 5 6 9 10 0 6 6 2 4 2 4 3 2 4 7 12 8 8 4 10 9 10 11 6 12 10 16 9 10
18 19 19 18 18 17 16 15 14 13 14 3 1 1 2 5 5 10 7 7 10 6 4 9 8 5 5 5 5 4 3 5 5 6 3 2 10 11 21 28 26 24 12 14 14 14 14
18 18 18 18 19 18 16 14 12 13 12 3 1 2 4 3 5 8 5 4 9 10 8 12 5 14 12 7 10 7 6 5 3 2 3 3 7 16 25 19 18 18 6 7 13 17 7
19 19 19 19 19 18 16 14 12 11 5 2 3 2 3 3 3 3 4 10 14 15 7 10 11 7 9 12 11 13 14 12 9 8 6 5 4 6 8 6 6 5 14 7 7 7 9
18 19 20 20 20 19 17 14 12 9 2 2 3 0 2 3 5 4 9 16 12 15 12 14 4 5 7 15 16 10 10 14 13 15 13 9 9 5 8 8 7 9 20 16 19 22 20
19 20 21 20 19 19 17 15 13 9 8 3 2 2 3 3 5 9 11 9 11 12 12 6 4 8 10 7 3 5 5 4 8 13 18 12 9 6 3 4 4 12 21 14 6 17 22
19 19 20 20 20 18 17 15 13 10 9 3 3 3 2 1 4 8 6 8 5 4 4 5 7 9 3 2 3 2 3 3 4 5 15 11 11 7 5 2 5 13 28 30 5 19 22
20 20 20 20 18 17 16 15 13 11 9 3 2 4 2 2 4 1 4 4 4 3 3 6 10 7 4 5 3 4 1 7 4 5 2 4 8 5 5 3 6 22 29 17 12 5 12
18 19 20 18 17 16 15 14 13 11 9 1 2 6 4 2 4 4 6 8 6 4 2 4 5 6 5 6 4 5 4 4 2 4 3 3 2 4 8 7 6 17 12 11 5 10 17
18 18 17 16 17 15 14 14 12 9 6 2 2 2 2 0 5 3 7 10 9 11 4 1 2 2 3 4 4 3 2 5 7 4 7 5 4 1 4 3 5 1 4 4 8 10 14
Wind_Direction
21 19 16 12 8 6 3 360 356 352 349 346 343 339 336 333 330 330 328 324 317 311 306 307 305 328 296 232 250 272 319 161 167 162 179 181 185 175 191 207 242 237 248 232 218 217 234
18 16 13 10 7 4 1 357 354 351 348 344 342 338 336 333 330 330 328 323 315 308 303 297 275 148 197 247 240 238 247 144 169 171 183 183 197 205 226 234 209 240 234 257 189 223 247
15 12 11 8 5 2 358 355 352 348 346 343 341 339 336 334 331 331 328 322 318 310 296 265 247 170 232 241 258 359 330 174 179 179 172 199 215 185 200 210 240 246 267 251 191 212 182
13 10 7 4 1 358 355 353 350 347 344 342 340 338 336 334 330 331 326 321 323 321 40 192 205 199 252 256 261 267 270 256 188 192 168 182 205 222 181 301 317 225 227 241 210 160 208
10 8 5 3 358 355 352 350 349 346 342 339 337 335 333 330 328 329 320 311 319 8 97 138 131 192 263 289 213 252 203 191 174 181 215 174 147 208 262 214 312 210 239 233 219 184 152
9 5 4 1 357 352 351 350 347 343 339 337 335 333 331 331 328 330 318 302 305 128 146 183 225 295 270 3 334 315 193 184 163 169 185 206 187 178 218 159 211 201 194 216 229 196 184
6 3 1 358 354 351 350 347 342 339 337 336 333 333 333 332 328 327 336 352 11 335 144 227 256 257 282 297 312 292 309 173 190 170 178 195 185 206 213 208 239 251 215 243 250 202 188
2 360 359 356 353 350 346 343 340 338 337 336 336 335 337 330 323 323 31 51 283 254 309 310 258 246 254 264 294 294 356 169 177 205 162 163 218 217 196 195 211 235 246 252 268 266 178
357 357 356 353 350 347 343 339 337 336 336 337 337 336 335 332 322 344 306 255 301 6 276 299 245 198 256 153 234 281 311 299 193 197 198 203 230 202 203 222 217 225 228 246 235 299 292
353 353 353 351 348 345 341 338 338 340 340 339 337 335 336 336 36 322 297 266 320 235 41 276 358 17 5 168 250 311 222 196 238 221 212 225 232 201 205 219 209 222 226 240 255 249 242
351 352 351 348 346 342 341 341 341 342 340 336 334 329 332 334 251 315 256 331 314 65 353 55 10 31 307 42 299 349 351 298 218 251 177 219 201 217 213 213 205 225 231 230 248 222 187
349 348 348 346 345 342 342 342 343 341 338 329 331 324 332 59 231 240 318 313 44 45 254 35 49 342 13 18 340 344 6 9 282 227 258 229 234 206 227 225 225 208 225 244 242 187 240
345 343 344 344 342 342 342 342 342 340 335 328 330 323 323 230 246 299 360 3 41 116 350 7 349 346 17 359 348 4 359 27 41 327 231 228 236 231 211 215 211 222 157 229 266 225 231
340 339 340 341 342 343 341 341 340 339 333 329 330 318 215 217 247 7 41 31 79 351 71 301 335 351 37 26 341 356 5 6 36 31 302 215 231 223 215 207 201 220 194 165 208 204 221
336 336 338 338 340 340 338 339 340 339 334 334 331 328 327 295 274 95 68 29 240 346 330 344 344 36 9 359 299 9 347 64 46 40 16 338 239 222 222 216 189 201 215 181 124 212 166
332 333 334 334 337 336 336 338 343 338 337 333 320 320 296 319 336 85 87 228 270 314 355 358 39 21 346 6 11 4 350 12 342 41 15 321 293 239 234 232 216 200 159 185 176 217 241
329 329 329 332 335 334 334 338 344 340 338 329 356 3 285 346 44 54 72 323 309 351 6 61 22 350 354 19 326 336 337 328 7 351 6 325 258 299 294 214 219 172 203 193 156 159 221
325 324 326 330 333 333 331 337 342 340 341 6 352 350 314 358 46 20 21 323 310 9 348 15 5 20 251 313 297 347 345 318 2 8 343 332 297 289 249 247 301 222 186 183 199 214 197
321 322 324 327 330 330 328 334 341 336 2 334 323 273 324 52 55 336 301 311 325 354 342 10 310 41 288 315 352 7 336 331 12 8 26 9 345 313 309 22 262 207 211 195 169 137 197
322 321 322 325 326 327 326 334 336 333 341 36 345 348 331 33 83 360 331 283 333 329 167 320 284 283 4 333 191 259 316 19 0 324 331 357 271 251 279 307 326 279 223 200 191 194 195
320 319 322 325 326 326 327 333 330 330 331 75 7 307 209 324 337 317 305 277 328 333 5 358 340 41 287 295 314 234 225 290 24 11 58 301 265 260 257 263 271 261 251 208 202 191 193
315 316 321 323 322 324 325 331 326 322 338 80 64 9 5 268 291 309 304 346 324 331 336 318 322 319 325 221 209 254 249 270 169 27 322 232 267 307 286 256 226 242 242 266 211 201 148
314 316 319 323 321 324 326 324 320 321 36 332 303 28 140 249 265 286 282 322 309 320 319 311 314 298 294 274 277 237 228 236 174 168 228 194 260 336 267 314 187 69 355 7 203 162 186
314 316 320 321 321 323 322 320 314 311 271 227 233 233 204 262 237 241 277 293 300 318 296 301 23 352 284 287 301 267 235 232 234 207 193 216 241 221 265 310 147 129 35 36 51 38 14
316 316 319 321 321 323 319 315 308 302 276 211 216 181 196 263 258 271 274 300 304 300 292 279 319 268 260 276 280 292 268 200 226 208 206 205 252 273 264 268 158 23 5 344 1 38 16
317 317 318 319 324 320 316 315 312 297 276 231 223 158 163 275 237 256 298 296 295 296 306 278 309 303 326 334 274 196 268 234 160 314 188 215 279 240 316 336 68 3 336 335 142 40 8
318 318 318 322 323 320 318 320 314 302 285 238 243 155 130 228 270 257 270 289 261 260 251 295 335 321 13 22 297 243 305 337 30 44 155 223 270 237 247 98 76 355 341 347 64 39 19
321 319 323 321 320 323 322 321 316 309 300 252 250 178 157 204 283 274 292 291 280 252 284 320 336 6 347 17 3 339 333 326 62 36 19 42 329 354 338 58 54 348 353 59 300 358 9
323 324 321 321 328 329 323 316 313 308 294 191 233 144 140 124 268 265 268 267 271 266 277 167 184 340 360 23 359 297 313 342 2 59 350 57 26 286 23 184 179 66 307 282 9 11 5